Regional Weather Roundup
Issued by NWS Wakefield, VA

Home | Current Version | Previous Version | Text Only | Print | Product List | Glossary On
Versions: 1 2 3 4 5 6 7 8 9 10 11 12 13 14 15 16 17 18 19 20 21 22 23 24 25 26 27
000
ASUS41 KAKQ 181815
RWRAKQ

REGIONAL WEATHER ROUNDUP
NATIONAL WEATHER SERVICE WAKEFIELD VA
200 PM EDT WED OCT 18 2017

Note: "fair" indicates few or no clouds below 12,000 feet with no
significant weather and/or obstructions to visibility. * = Denotes
station may not report precipitation (e.g., rain,snow,etc.),
thunder or fog.

VAZ042-051-052>054-056-181900-
NORTHERN VIRGINIA

CITY           SKY/WX    TMP DP  RH WIND       PRES   REMARKS
WASH NATIONAL  SUNNY     69  47  45 S8        30.35F
DULLES         MOSUNNY   68  41  37 SW8       30.35F
FORT BELVOIR   SUNNY     68  38  34 S6        30.35F
QUANTICO       SUNNY     67  47  48 S7        30.36F
FREDERICKSBRG* SUNNY     69  42  38 SW6       30.35F
STAFFORD*      SUNNY     68  39  34 CALM      30.39F
WARRENTON      SUNNY     71  35  27 CALM      30.34F
CULPEPER*      SUNNY     70  35  28 S3        30.36F
MANASSAS*      SUNNY     69  42  37 S5        30.35F
LEESBURG*      SUNNY     70  45  40 CALM      30.35F
WINCHESTER     SUNNY     64  41  42 SE5       30.34F
FRONT ROYAL*   CLEAR     68  41  37 CALM      30.33F
LURAY*         CLEAR     68  39  34 SW6       30.34F
$$

VAZ048-049-060>072-079>083-181900-
CENTRAL AND SOUTH CENTRAL VIRGINIA

CITY           SKY/WX    TMP DP  RH WIND       PRES   REMARKS
RICHMOND       MOSUNNY   67  38  34 VRB5      30.36F
CHESTERFIELD*  NOT AVBL
PETERSBURG*    SUNNY     65  31  27 NE6       30.37F
HANOVER        SUNNY     66  40  38 S7        30.38F
TAPPAHANNOCK*  SUNNY     69  28  21 SE6       30.37F
QUINTON*       FAIR      65  40  39 E5        30.36F
CHARLOTTSVILLE SUNNY     70  40  33 SW6       30.35F
GORDONSVILLE*  CLEAR     67  40  36 S3        30.35F
ORANGE*        SUNNY     68  41  37 SW3       30.35F
LOUISA*        SUNNY     66  37  34 CALM      30.36F
BUMPASS*       FAIR      66  41  39 S5        30.35F
FARMVILLE*     SUNNY     68  37  32 CALM      30.36F
CREWE*         FAIR      66  37  34 S3        30.37F
FORT PICKETT*  FAIR      65  36  34 CALM      30.37F
CHASE CITY*    FAIR      66  36  33 E5        30.37F
CLARKSVILLE*   FAIR      63  37  39 E7        30.37F
SOUTH HILL*    SUNNY     64  33  31 NE3       30.42F
LAWRENCEVILLE* FAIR      66  35  31 E5        30.36F
EMPORIA*       SUNNY     64  41  42 E6        30.38F
$$

VAZ088>098-181900-
SOUTHEAST VIRGINIA

CITY           SKY/WX    TMP DP  RH WIND       PRES   REMARKS
NORFOLK        SUNNY     68  47  46 NE9       30.36F
VIRGINIA BEACH SUNNY     66  45  46 E7        30.35F
NORFOLK NAVAL  MOSUNNY   66  47  50 E9        30.37F
WEST POINT*    SUNNY     65  43  45 SW5       30.39F
SALUDA*        FAIR      63  48  59 N6        30.37F
NEWPORT NEWS   SUNNY     65  43  44 E8        30.37F
LANGLEY AFB    SUNNY     66  44  45 E6        30.37F
FORT EUSTIS    SUNNY     72  43  35 W6        30.34F
WILLIAMSBURG*  SUNNY     70  43  37 SE5       30.38F
HR EXEC AP*    NOT AVBL
FRANKLIN*      SUNNY     67  48  50 E8        30.36F
US460-WAKEFLD  SUNNY     67  43  41 NE7       30.36F
$$

VAZ020-022-025-037-045-181900-
WEST CENTRAL AND SOUTHWEST VIRGINIA

CITY           SKY/WX    TMP DP  RH WIND       PRES   REMARKS
STAUNTON*      SUNNY     67  38  34 S7        30.37F
WAYNESBORO*    CLEAR     65  39  38 SE10G16   30.36F
HOT SPRINGS VA SUNNY     56  33  41 S8        30.39F
LYNCHBURG      SUNNY     65  38  36 E6        30.36F
DANVILLE       SUNNY     65  38  36 VRB5      30.37F
SOUTH BOSTON*  FAIR      67  33  28 E7        30.37F
MARTINSVILLE   SUNNY     65  39  37 SE5       30.39F
ROANOKE        SUNNY     65  43  44 E6        30.38F
BLACKSBURG     SUNNY     65  42  44 E3        30.38F
DUBLIN*        SUNNY     65  44  46 E3        30.37F
MARION*        SUNNY     66  36  33 E7        30.37F
HILLSVILLE*    SUNNY     61  29  29 CALM      30.35F
RICHLANDS*     FAIR      66  -9   4 S6        30.34F
WISE*          SUNNY     64  43  45 CALM      30.35F
ABINGDON*      SUNNY     67  40  37 SW3       30.34F
$$

MDZ021>025-VAZ099-100-181900-
SOUTHERN MARYLAND AND THE DELMARVA PENINSULA

CITY           SKY/WX    TMP DP  RH WIND       PRES   REMARKS
PATUXENT RIVER SUNNY     68  41  37 W7        30.35F
BAY BRIDGE APT SUNNY     66  45  45 W7        30.35F
LEONARDTOWN    NOT AVBL
DOVER          SUNNY     70  45  40 W5        30.31F
GEORGETOWN     SUNNY     69  43  38 VRB3      30.34F
EASTON         SUNNY     68  41  37 W6        30.38F
CAMBRIDGE      SUNNY     68  43  40 CALM      30.35F
SALISBURY      SUNNY     67  44  43 SW7       30.34F
OCEAN CITY     SUNNY     65  48  54 S7        30.35F
WALLOPS ISLAND SUNNY     67  38  34 SE5       30.36F
ACCOMACK*      SUNNY     68  43  41 NW3       30.36F
$$

NCZ012>017-030>032-181900-
NORTH CENTRAL AND EASTERN NORTH CAROLINA

CITY           SKY/WX    TMP DP  RH WIND       PRES   REMARKS
ROANOKE RAPIDS FAIR      66  45  45 E7        30.36F
RALEIGH        MOSUNNY   66  31  27 E8        30.36F
ELIZABETH CITY SUNNY     69  54  58 NE10      30.35F
AHOSKIE*       SUNNY     65  49  56 N6        30.36F
EDENTON*       SUNNY     70  53  55 CALM      30.35F
CURRITUCK*     SUNNY     66  53  61 NE8       30.36F
KILL DEVIL HLS SUNNY     67  53  59 NE9G16    30.33F
MANTEO         SUNNY    N/A N/A N/A NE13G20   30.34F
CAPE HATTERAS  SUNNY     71  58  63 NE13G22   30.30F
TARBORO*       NOT AVBL
GOLDSBORO      SUNNY     69  46  45 NE6       30.32F
WASHINGTON     SUNNY     69  51  53 N5        30.34F
GREENVILLE     SUNNY     68  46  45 E6        30.35F
NEW BERN       SUNNY     71  50  47 NE6       30.33F
WILMINGTON     SUNNY     73  54  51 N14       30.30F
$$

VAZ048-181900-
ELSEWHERE

CITY           SKY/WX    TMP DP  RH WIND       PRES   REMARKS
HARRISBURG PA  SUNNY     70  43  37 W5        30.31F
BALTIMORE      SUNNY     70  43  37 VRB3      30.33F
ANNAPOLIS      SUNNY     69  47  45 SE5       30.34F
ANDREWS AFB    SUNNY     68  43  39 S6        30.33F
PHILADELPHIA   SUNNY     69  44  40 SW6       30.31F
HENDERSON NC   SUNNY     62  32  33 NE5       30.37F
GREENSBORO     MOSUNNY   64  38  38 VRB6      30.35F
ROCKY MOUNT    SUNNY     67  48  50 MISG      30.35F
$$

VAZ100-181900-
MARINE

STATION/POSITION TIME  TEMP    WIND        PRES    WAVE   SWELL
                       AIR SEA DIR/SP/G            HT/PER HT/PER
                 (UTC) (F)     (DEG/KT/KT) (MB)    (FT/S) (FT/S)
BRANDYWINE LGT   1742   65     250/  6/  8 1027.7F
CAPE MAY NJ      1748   63 65  280/  7/  8 1026.9F
LEWES DE         1742   66 64  340/  4/  4 1027.1F
15NM E FENWICK I 1750   62 68  230/  6/  8 1028.3F   3/10   3/10
OCEAN-CITY-INLET 1742   64 66  200/  6/  9 1028.1F
WACHAPREAGUE VA  1742   64 64  150/  3/  6 1028.3F
THOMAS POINT MD  1800   64 68  180/  6/  6   N/A
GOOSES REEF MD   1800   64 70  240/  6/  8 1034.5    0
COVE POINT MD    1742   63      80/  2/  3 1028.6F
SOLOMONS ISLAND  1742   64 70  190/  3/  4 1027.6F
BISHOPS HEAD MD  1742   61 63  240/  6/  8 1028.6F
PINEY POINT MD   1742           CALM  /  1   N/A
POTOMAC MD       1800   63 70   CALM  /  2 1027.6    0
CAMBRIDGE MD     1742   72 67              1028.5F
LEWISETTA VA     1742   63 64   80/  1/  2 1028.1F
RAPPAHANNOCK LGT 1742          300/  4/  5 1029.0F
STINGRAY PT      1800   64 68   CALM  /  2 1028.9    0
YORK RVR RNG VA  1742   61     350/  3/  4 1029.1F
YORKTOWN VA      1742   62 70   60/  5/  7 1028.3F
JAMESTOWN VA     1800      71  190/  8/ 10   N/A     0
DOMINION TERM VA 1742   64      50/  3/  6 1028.6F
KIPTOPEKE VA     1742      66  150/  4/  6   N/A
CAPE HENRY VA    1742   63      60/  7/  9   N/A
WILLOUBY STN VA  1742   62      80/  8/  9 1028.3F
S CRANEY ISL VA  1742   64      40/  5/  7 1028.1F
CAPE HENRY BUOY  1800      70                N/A     3/ 9   2/11
1ST LANDING BUOY 1800   62 70              1028.3    1/ 4
CAPE CHARLES BUO 1751      70                N/A     3/10   2/11
64NM E OF VA BCH 1750   64 67   30/ 10/ 12 1028.2F   5/10   5/10
DUCK PIER NC     1742   64 68   60/ 12/ 16 1027.2F
44100 DUCK FRF   1735      71                N/A     4/ 9   2/11
44056 DUCK FRF   1800      70                N/A     3/ 9   2/11
OREGON INLET NC  1742   66 64   30/ 13/ 16 1026.8F
HATTERAS NC      1742   67 67   30/ 14/ 19 1026.1F
DIAMOND SHLS NC  1750   70 82   20/ 19/ 27 1024.7F   6/10   3/10
CAPE LOOKOUT NC  1800   68      10/ 15/ 21 1025.5F
$$




USA.gov is the U.S. government's official web portal to all federal, state and local government web resources and services.